NOAA 16 DEB, 42372

Orbit data source: Space-Track

NOAA 16 DEB, 42372 is space debris in SSO originally from a launch on Thu, 21 Sep 2000 UTC launched from the Air Force Western Test Range (AFWTR). Debris objects in space refer to the collection of defunct objects orbiting the Earth. Examples of debris include non-operational satellites, rocket bodies, and fragments generated from explosions, collisions, or faulty payload assembly.

Loading next visibility...
Identifier
42372, 2000-055RQ
Orbit
SSO
Country
Flag of USUS
Related business
Manufacturer
Unknown
Mission
Spacecraft
Bus & Motor
Unknown
Mass
Unknown
Launch date (UTC)
2000-09-21 (25 years ago)
Launch vehicle
Unknown
Launch site
Air Force Western Test Range (AFWTR)
Object type
Payload
Rocket body
Debris
Shape & HBR
Unknown shape, 0.1 m
Radar Cross Section
Small (<0.1 m²)

Expand to show TLE details & history
Last TLE update: 3 days ago

TLE from 3 days ago
0 NOAA 16 DEB
1 42372U 00055RQ  25297.25394753  .00007483  00000-0  28182-2 0  9996
2 42372  98.8626  50.5218 0009517 296.8841  63.1369 14.31703309493588
Epoch: 2025-10-24T06:05Z
TLE epoch observation values (Epoch: 2025-10-24T06:05:41.066Z)
Latitude
0.00003°
Longitude
-73.80081°
Altitude
785.892 km
Speed
7.462 km/s
True Right ascension
03h 22m 05s
True Declination
0° 00' 00"
Sunlit
Object was in full shadow at epoch
Visualization orbit readout
Latitude
Unknown
Longitude
Unknown
Altitude
Unknown
Speed
Unknown
Apparent Right ascension
Unknown
Apparent Declination
Unknown
Sunlit
N/A
Visualization observer readout
Local Sidereal Time
18:38:27
Azimuth
Unknown
Elevation
Unknown
Doppler factor
Unknown
Orbital elements
Apogee altitude
790.009 km
Perigee altitude
776.378 km
Semi-major axis
7,161.33 km
Eccentricity
0.00095
Inclination
98.8626°
RAAN
50.5218°
Arg. of periapsis
296.8841°
True anomaly
63.23424°
Mean anomaly
63.1369°
Eccentric anomaly
63.18557°
Mean motion
3.5814 °/min
Orbital period
100.52 mins
BSTAR
0.0028182
Loading maneuver chart data...
Computing Atmospheric mass density...
Loading historical data...
Loading historical data...
Loading historical data...
Loading historical data...
Loading historical data...
Loading historical data...
Loading historical data...

Documentation

Showing up to 5 results
|